星链-2508 (STARLINK-2508 )

导读 | 豆包AI

STARLINK-2508是美国太空探索技术公司(SpaceX)星链互联网卫星星座中的一颗卫星,于2021年5月9日在范登堡太空军基地发射升空,星链项目旨在为全球提供高速低延迟宽带互联网服务,该卫星服役多年,为星座的全球覆盖能力提供支撑,目前仍在预定轨道运行。

Basic Information
目录编号:
48456
目录名称:
STARLINK-2508
国际标识:
2021-040AE
轨道中心:
EARTH
卫星名称:
星链-2508
卫星全名:
星链-2508 (STARLINK-2508 )
卫星状态:
已陨落 最后检测时间 2024-08-13
发射日期:
2021-05-09 UTC
国别 :
美国 (US)
星等 :
--
Orbit Information
数据来源 国际轨道数据
星历时间: 2024-08-13T21:03:54+0800
轨道信息已过期578天
半长轴: 6578.509km
偏心率: 0.0001681
轨道倾角: 53.032°
近地点辐角 173.937°
升交点赤经 156.499°
平近点角 346.141°
近地点: 199.268km
远地点: 201.48km
周期: 88.502分钟
每日圈数: 16.270902
Detailed Information
固有亮度:
5
最大亮度:
2.5
卫星平台:
Starlink V1.0
覆盖范围:
全球
运营商:
太空探索技术公司
运营商所在国:
美国
制造商(研发单位):
太空探索技术公司
制造商所在国:
美国
使用方式:
暂无
Satellite Introduction
星链(Starlink)计划是由太空探索技术公司(SpaceX)提出的一个巨型低轨卫星互联网星座项目,计划在2019年至2024年间在太空搭建由约1.2万颗卫星组成的“星链”网络,其中1584颗将部署在地球上空550千米处的近地轨道,并从2020年开始工作。该卫星仍在工作。